Hot Springs, VA

6:07 PM EST on November 23, 2017 (GMT -0500)
Ingalls

Weather History for KHSP - March, 2012

Change the Weather History Date:

Friday, March 9, 2012

  Actual Average Record
Temperature  
Mean Temperature 38 °F -  
Max Temperature 46 °F 40 °F 66 °F (2016)
Min Temperature 30 °F 24 °F 8 °F (2005)
Degree Days  
Heating Degree Days 27    
Moisture  
Dew Point 26 °F    
Average Humidity 69    
Maximum Humidity 100    
Minimum Humidity 39    
Precipitation  
Precipitation 0.00 in - - ()
Sea Level Pressure  
Sea Level Pressure 30.15 in    
Wind  
Wind Speed 18 mph (WNW)    
Max Wind Speed 31 mph    
Max Gust Speed 41 mph    
Visibility 10 miles    
Events Fog    
Averages and records for this station are not official NWS values.
T = Trace of Precipitation, MM = Missing Value Source: NWS Daily Summary

Daily Weather History Graph

Daily Weather History Graph

Search for Another Location

Airport or City:

Trip Planner

Search our weather history database for the weather conditions in past years. The results will help you decide how hot, cold, wet, or windy it might be!

Date:

Astronomy

Mar. 09, 2012 Rise Set
Actual Time 6:38 AM EST 6:21 PM EST
Civil Twilight 6:12 AM EST 6:47 PM EST
Nautical Twilight 5:42 AM EST 7:17 PM EST
Astronomical Twilight 5:11 AM EST 7:48 PM EST
Moon 8:15 PM EST (3/9) 6:58 AM EST (3/9)
Length of Visible Light 12h 34m
Length of Day
11h 42m
Full, 98% of the Moon is Illuminated
Mar 9
Full
Mar 14
Last Quarter
Mar 22
New
Mar 30
First Quarter
Apr 6
Full

Hourly Weather History & Observations

Time (EST) Temp. Windchill Dew Point Humidity Pressure Visibility Wind Dir Wind Speed Gust Speed Precip Events Conditions
12:15 AM 46.4 °F 39.2 °F 46.4 °F 100% 30.11 in 0.2 mi West 18.4 mph 25.3 mph N/A Fog Fog
12:35 AM 46.4 °F 39.5 °F 44.6 °F 93% 30.11 in 10.0 mi West 17.3 mph - N/A   Overcast
12:55 AM 46.4 °F 39.5 °F 44.6 °F 93% 30.10 in 10.0 mi West 17.3 mph 25.3 mph N/A   Overcast
1:15 AM 44.6 °F 35.7 °F 44.6 °F 100% 30.10 in 10.0 mi West 24.2 mph 31.1 mph N/A   Overcast
1:35 AM 44.6 °F 36.6 °F 44.6 °F 100% 30.10 in 10.0 mi West 19.6 mph 27.6 mph N/A   Overcast
1:55 AM 42.8 °F 34.3 °F 42.8 °F 100% 30.11 in 10.0 mi NW 19.6 mph 28.8 mph N/A   Overcast
2:15 AM 41.0 °F 33.1 °F 39.2 °F 93% 30.11 in 10.0 mi NW 15.0 mph 23.0 mph N/A   Overcast
2:35 AM 39.2 °F 30.2 °F 37.4 °F 93% 30.10 in 10.0 mi WNW 17.3 mph 25.3 mph N/A   Overcast
2:55 AM 39.2 °F 31.2 °F 37.4 °F 93% 30.11 in 10.0 mi WNW 13.8 mph - N/A   Overcast
3:15 AM 37.4 °F 29.3 °F 37.4 °F 100% 30.09 in 10.0 mi WNW 12.7 mph 19.6 mph N/A   Overcast
3:35 AM 37.4 °F 30.3 °F 35.6 °F 93% 30.08 in 10.0 mi WNW 10.4 mph 19.6 mph N/A   Overcast
3:55 AM 35.6 °F 27.1 °F 35.6 °F 100% 30.09 in 7.0 mi WNW 12.7 mph 18.4 mph N/A   Overcast
4:15 AM 33.8 °F 24.3 °F 33.8 °F 100% 30.09 in 7.0 mi WNW 13.8 mph 21.9 mph N/A   Overcast
4:35 AM 33.8 °F 26.4 °F 33.8 °F 100% 30.09 in 10.0 mi NW 9.2 mph 20.7 mph N/A   Scattered Clouds
4:55 AM 33.8 °F 25.8 °F 32.0 °F 93% 30.10 in 10.0 mi WNW 10.4 mph 18.4 mph N/A   Scattered Clouds
5:15 AM 33.8 °F 22.8 °F 30.2 °F 87% 30.10 in 10.0 mi West 18.4 mph 24.2 mph N/A   Mostly Cloudy
5:35 AM 33.8 °F 23.2 °F 30.2 °F 87% 30.10 in 10.0 mi WNW 17.3 mph 28.8 mph N/A   Scattered Clouds
5:55 AM 32.0 °F 21.6 °F 30.2 °F 93% 30.11 in 10.0 mi West 15.0 mph 21.9 mph N/A   Mostly Cloudy
6:15 AM 32.0 °F 21.2 °F 30.2 °F 93% 30.11 in 10.0 mi West 16.1 mph 21.9 mph N/A   Overcast
6:35 AM 32.0 °F 22.5 °F 30.2 °F 93% 30.11 in 10.0 mi WNW 12.7 mph 21.9 mph N/A   Overcast
6:55 AM 30.2 °F 18.1 °F 28.4 °F 93% 30.12 in 10.0 mi West 18.4 mph 26.5 mph N/A   Mostly Cloudy
7:15 AM 30.2 °F 18.5 °F 28.4 °F 93% 30.13 in 10.0 mi WNW 17.3 mph 28.8 mph N/A   Scattered Clouds
7:35 AM 30.2 °F 17.4 °F 28.4 °F 93% 30.13 in 10.0 mi WNW 20.7 mph 28.8 mph N/A   Scattered Clouds
7:55 AM 30.2 °F 17.8 °F 28.4 °F 93% 30.13 in 10.0 mi WNW 19.6 mph 28.8 mph N/A   Mostly Cloudy
8:15 AM 30.2 °F 17.8 °F 28.4 °F 93% 30.14 in 10.0 mi WNW 19.6 mph 34.5 mph N/A   Mostly Cloudy
8:35 AM 30.2 °F 18.1 °F 26.6 °F 86% 30.15 in 10.0 mi West 18.4 mph 28.8 mph N/A   Mostly Cloudy
8:55 AM 30.2 °F 18.9 °F 26.6 °F 86% 30.15 in 10.0 mi NW 16.1 mph 28.8 mph N/A   Scattered Clouds
9:15 AM 30.2 °F 15.7 °F 26.6 °F 86% 30.15 in 10.0 mi WNW 27.6 mph 36.8 mph N/A   Clear
9:55 AM 30.2 °F 15.9 °F 24.8 °F 80% 30.16 in 10.0 mi WNW 26.5 mph 35.7 mph N/A   Clear
10:15 AM 30.2 °F 15.2 °F 21.2 °F 69% 30.17 in 10.0 mi WNW 29.9 mph 36.8 mph N/A   Clear
10:35 AM 32.0 °F 18.4 °F 19.4 °F 60% 30.16 in 10.0 mi WNW 26.5 mph 36.8 mph N/A   Clear
10:56 AM 33.8 °F 21.0 °F 15.8 °F 48% 30.16 in 10.0 mi WNW 25.3 mph 35.7 mph N/A   Clear
11:17 AM 33.8 °F 19.9 °F 15.8 °F 48% 30.15 in 10.0 mi West 31.1 mph 41.4 mph N/A   Clear
11:35 AM 35.6 °F 23.7 °F 17.6 °F 48% 30.15 in 10.0 mi WNW 24.2 mph 32.2 mph N/A   Clear
11:55 AM 35.6 °F 23.4 °F 17.6 °F 48% 30.15 in 10.0 mi WNW 25.3 mph 39.1 mph N/A   Clear
12:15 PM 37.4 °F 26.4 °F 19.4 °F 48% 30.15 in 10.0 mi West 23.0 mph 34.5 mph N/A   Clear
12:35 PM 37.4 °F 25.9 °F 17.6 °F 45% 30.15 in 10.0 mi WNW 25.3 mph 38.0 mph N/A   Clear
12:55 PM 39.2 °F 28.5 °F 17.6 °F 42% 30.15 in 10.0 mi WNW 24.2 mph 41.4 mph N/A   Clear
1:15 PM 39.2 °F 29.3 °F 19.4 °F 45% 30.14 in 10.0 mi WNW 20.7 mph 33.4 mph N/A   Clear
1:35 PM 39.2 °F 28.0 °F 19.4 °F 45% 30.14 in 10.0 mi NW 26.5 mph 34.5 mph N/A   Clear
1:55 PM 41.0 °F 31.6 °F 19.4 °F 42% 30.13 in 10.0 mi WNW 20.7 mph 36.8 mph N/A   Clear
2:15 PM 41.0 °F 31.1 °F 17.6 °F 39% 30.13 in 10.0 mi NW 23.0 mph 35.7 mph N/A   Clear
2:35 PM 42.8 °F 33.5 °F 19.4 °F 39% 30.12 in 10.0 mi WNW 23.0 mph 33.4 mph N/A   Clear
2:55 PM 42.8 °F 34.3 °F 19.4 °F 39% 30.13 in 10.0 mi WNW 19.6 mph 28.8 mph N/A   Clear
3:15 PM 42.8 °F 35.1 °F 19.4 °F 39% 30.14 in 10.0 mi WNW 16.1 mph 25.3 mph N/A   Clear
3:35 PM 42.8 °F 34.0 °F 19.4 °F 39% 30.14 in 10.0 mi West 20.7 mph 31.1 mph N/A   Clear
3:55 PM 41.0 °F 33.5 °F 21.2 °F 45% 30.14 in 10.0 mi WNW 13.8 mph 31.1 mph N/A   Clear
4:15 PM 41.0 °F 33.1 °F 21.2 °F 45% 30.15 in 10.0 mi WNW 15.0 mph 36.8 mph N/A   Clear
4:35 PM 41.0 °F 31.4 °F 21.2 °F 45% 30.15 in 10.0 mi WNW 21.9 mph 33.4 mph N/A   Clear
4:55 PM 39.2 °F 29.6 °F 21.2 °F 49% 30.16 in 10.0 mi WNW 19.6 mph 26.5 mph N/A   Clear
5:15 PM 39.2 °F 30.8 °F 21.2 °F 49% 30.17 in 10.0 mi WNW 15.0 mph 26.5 mph N/A   Clear
5:35 PM 39.2 °F 30.8 °F 19.4 °F 45% 30.17 in 10.0 mi WNW 15.0 mph 31.1 mph N/A   Clear
5:57 PM 37.4 °F 27.5 °F 17.6 °F 45% 30.17 in 10.0 mi WNW 18.4 mph 26.5 mph N/A   Clear
6:15 PM 37.4 °F 26.9 °F 17.6 °F 45% 30.19 in 10.0 mi WNW 20.7 mph 29.9 mph N/A   Clear
6:35 PM 35.6 °F 25.2 °F 19.4 °F 52% 30.20 in 10.0 mi WNW 18.4 mph 25.3 mph N/A   Clear
6:55 PM 35.6 °F 27.1 °F 17.6 °F 48% 30.20 in 10.0 mi NW 12.7 mph 27.6 mph N/A   Clear
7:15 PM 33.8 °F 27.0 °F 17.6 °F 52% 30.21 in 10.0 mi WNW 8.1 mph 23.0 mph N/A   Clear
7:35 PM 33.8 °F 21.9 °F 17.6 °F 52% 30.22 in 10.0 mi WNW 21.9 mph 28.8 mph N/A   Clear
7:55 PM 33.8 °F 23.2 °F 17.6 °F 52% 30.23 in 10.0 mi WNW 17.3 mph 26.5 mph N/A   Clear
8:15 PM 32.0 °F 22.1 °F 17.6 °F 55% 30.24 in 10.0 mi NW 13.8 mph 21.9 mph N/A   Clear
8:35 PM 32.0 °F 20.8 °F 17.6 °F 55% 30.24 in 10.0 mi WNW 17.3 mph 27.6 mph N/A   Clear
8:55 PM 30.2 °F 18.9 °F 17.6 °F 60% 30.26 in 10.0 mi WNW 16.1 mph 29.9 mph N/A   Clear
9:15 PM 30.2 °F 18.5 °F 17.6 °F 60% 30.26 in 10.0 mi WNW 17.3 mph 23.0 mph N/A   Clear
9:36 PM 30.2 °F 20.2 °F 17.6 °F 60% 30.27 in 10.0 mi WNW 12.7 mph 20.7 mph N/A   Clear
9:55 PM 28.4 °F 16.6 °F 17.6 °F 64% 30.27 in 10.0 mi WNW 16.1 mph 21.9 mph N/A   Clear
10:15 PM 28.4 °F 17.5 °F 17.6 °F 64% 30.27 in 10.0 mi NW 13.8 mph 18.4 mph N/A   Clear
10:35 PM 28.4 °F 16.6 °F 17.6 °F 64% 30.28 in 10.0 mi NW 16.1 mph 21.9 mph N/A   Clear
10:55 PM 28.4 °F 18.0 °F 17.6 °F 64% 30.28 in 10.0 mi NW 12.7 mph 21.9 mph N/A   Clear
11:15 PM 26.6 °F 14.7 °F 15.8 °F 64% 30.28 in 10.0 mi NW 15.0 mph 21.9 mph N/A   Clear
11:35 PM 26.6 °F 14.3 °F 15.8 °F 64% 30.28 in 10.0 mi NW 16.1 mph 21.9 mph N/A   Clear
11:55 PM 26.6 °F 15.2 °F 15.8 °F 64% 30.29 in 10.0 mi NW 13.8 mph 24.2 mph N/A   Clear